EST,Max TemperatureF,Mean TemperatureF,Min TemperatureF,Max Dew PointF,MeanDew PointF,Min DewpointF,Max Humidity, Mean Humidity, Min Humidity, Max Sea Level PressureIn, Mean Sea Level PressureIn, Min Sea Level PressureIn, Max VisibilityMiles, Mean VisibilityMiles, Min VisibilityMiles, Max Wind SpeedMPH, Mean Wind SpeedMPH, Max Gust SpeedMPH,PrecipitationIn, CloudCover, Events, WindDirDegrees
2012-12-1,42,38,33,39,34,29,100,87,73,30.48,30.42,30.38,10,5,0,8,3,20,0.00,8,Fog,57
2012-12-2,52,45,38,45,41,38,100,87,74,30.40,30.25,30.12,5,2,0,8,1,22,T,8,Fog-Rain,118
2012-12-3,66,53,39,51,46,39,100,79,58,30.25,30.20,30.15,8,4,0,8,1,16,0.01,5,Fog-Rain,110
2012-12-4,67,56,45,54,49,45,100,80,60,30.22,30.15,29.95,10,4,0,16,4,23,0.02,6,Fog-Rain,150
2012-12-5,64,49,34,49,32,19,83,63,42,30.31,30.14,29.94,10,10,10,26,14,35,T,5,,319
2012-12-6,42,34,26,25,20,18,78,61,44,30.39,30.31,30.25,10,10,10,14,4,16,0.00,4,,46
2012-12-7,40,36,31,39,35,24,100,85,69,30.24,30.12,30.00,10,4,1,8,3,10,0.33,8,Rain,101
2012-12-8,46,43,39,45,42,37,100,96,92,30.04,29.94,29.89,2,1,0,7,1,7,0.01,8,Fog-Rain,294
2012-12-9,47,44,41,44,41,39,100,92,83,30.22,30.12,29.99,8,4,0,14,5,22,0.37,8,Fog-Rain,68
2012-12-10,49,45,40,48,44,39,100,97,93,29.96,29.69,29.57,10,2,0,21,3,29,0.09,8,Fog-Rain,315
2012-12-11,47,38,29,41,32,24,86,68,49,30.23,29.98,29.71,10,10,6,22,9,26,0.04,5,Rain,306
2012-12-12,40,34,28,30,26,24,92,73,54,30.45,30.38,30.23,10,10,7,12,2,15,0.00,6,,311
2012-12-13,45,35,25,29,25,22,92,69,45,30.49,30.42,30.35,10,8,3,10,3,12,0.00,1,,329
2012-12-14,50,36,22,30,25,21,96,71,45,30.34,30.27,30.20,10,8,4,8,1,10,0.00,2,,313
2012-12-15,49,38,26,34,30,25,92,76,60,30.33,30.23,30.15,9,8,7,10,3,13,0.00,7,,122
2012-12-16,49,45,41,43,40,35,86,80,73,30.13,29.97,29.86,10,8,4,12,6,14,T,8,Rain,126
2012-12-17,46,45,43,45,43,42,100,93,86,29.86,29.77,29.55,4,2,1,13,5,17,0.27,8,Rain,93
2012-12-18,52,45,38,45,40,28,100,79,57,29.78,29.58,29.52,10,4,0,26,9,35,0.01,7,Fog-Rain,297
2012-12-19,48,40,32,35,30,28,89,71,53,30.18,29.96,29.78,10,10,10,24,8,29,0.00,5,,316
2012-12-20,44,36,27,42,32,26,92,77,62,30.20,30.00,29.50,10,7,3,22,8,30,0.74,7,Rain,117
2012-12-21,50,43,36,48,32,25,100,80,59,29.45,29.34,29.22,10,8,2,26,17,36,0.72,8,Rain-Snow,277
2012-12-22,40,36,32,25,22,20,61,55,48,29.97,29.76,29.46,10,10,9,39,24,48,T,6,Snow,300
2012-12-23,45,36,27,28,22,19,81,59,37,30.04,29.97,29.88,10,10,10,15,7,21,0.00,2,,251
2012-12-24,39,31,22,31,27,20,100,77,54,30.08,29.99,29.91,10,5,0,13,3,16,0.21,7,Fog-Snow,113
2012-12-25,41,35,29,35,30,22,96,80,64,30.28,30.10,29.91,10,6,1,14,5,17,T,7,,329
2012-12-26,36,32,27,32,25,19,96,83,69,30.29,29.91,29.45,10,5,0,20,7,24,0.64,8,Rain-Snow,68
2012-12-27,36,34,32,32,28,24,96,83,69,29.99,29.66,29.44,10,9,2,31,18,38,0.08,8,Rain-Snow,312
2012-12-28,37,31,25,26,25,23,92,78,64,30.14,30.08,29.99,10,10,8,18,7,22,0.00,6,,326
2012-12-29,34,32,29,28,27,23,100,85,69,30.02,29.76,29.58,10,4,0,25,8,31,0.25,8,Fog-Snow,80
2012-12-30,35,33,30,24,21,19,64,60,56,30.28,30.09,29.79,10,10,8,35,19,44,T,6,Snow,306
2012-12-31,38,30,22,28,21,18,81,67,52,30.27,30.13,29.94,10,10,9,20,8,25,0.00,6,,232